#timestamp,LO_Frequency,Hit,StdDev 
1694397615.9,286047001.7,N
1694397635.7,286047002.2,N
1694397655.5,286047001.3,N
1694397675.4,286047004.2,Y
1694397695.2,286047002.7,P
1694397715.0,286046999.8,N
1694397716.0,286046999.8,N
1694397735.8,286047002.5,N
1694397755.6,286047002.7,N
1694397775.5,286046999.8,N
1694397795.3,286047001.2,N
1694397815.1,286046998.2,N
1694397835.9,286047000.5,N
1694397855.7,286047001.2,N
1694397875.5,286046998.1,N
1694397895.4,286047001.0,N
1694397915.2,286047000.4,N
1694397935.1,286046998.2,N
1694397936.0,286046998.2,N
1694397955.8,286047001.2,N
1694397975.7,286047000.5,N
1694397995.5,286047000.1,N
1694398015.3,286047001.1,N
1694398035.2,286046998.3,N
1694398055.9,286046998.8,N
1694398075.7,286046999.3,N
1694398095.6,286046999.3,N
1694398115.4,286046997.1,N
1694398135.3,286046997.1,N
1694398155.1,286046996.6,N
1694398156.0,286046996.6,N
1694398175.8,286046999.1,N
1694398195.7,286046998.9,N
1694398215.5,286046998.2,N
1694398235.3,286046998.7,N
1694398255.2,286046998.6,N
1694398275.0,286046998.6,N
1694398275.9,286046998.6,N
1694398295.8,286047000.9,N
1694398315.6,286047000.6,N
1694398335.4,286047000.5,N
1694398355.3,286047000.6,N
1694398375.1,286046999.9,N
1694398395.8,286047000.7,N
1694398415.7,286047000.8,N
1694398435.5,286047000.0,N
1694398455.4,286047000.8,N
1694398475.2,286047000.7,N
1694398495.0,286047000.6,N
1694398495.9,286047000.6,N
1694398515.8,286047000.3,N
1694398535.6,286047000.6,N
1694398555.4,286047000.4,N
1694398575.3,286047000.0,N
1694398595.1,286047000.5,N
1694398615.9,286047000.7,N
1694398635.7,286047000.5,N
1694398655.5,286047000.9,N
1694398675.4,286047000.9,N
1694398695.2,286047000.8,N
1694398715.0,286047000.5,N
1694398716.0,286047000.5,N
1694398735.8,286047000.8,N
1694398755.6,286047001.1,N
1694398775.5,286047000.4,N
1694398795.3,286046998.3,N
1694398845.2,286047000.7,E
1694398855.1,286046998.2,N
1694398856.0,286046998.2,P
1694398875.8,286046998.1,P
1694398895.7,286046998.3,Y
1694398915.5,286047002.1,P
1694398935.3,286047001.9,N
1694398955.2,286047002.2,N
1694398975.0,286047004.2,N
1694398975.9,286047004.2,N
1694398995.8,286047003.6,N
1694399015.6,286047002.0,N
1694399035.4,286047004.2,N
1694399055.3,286047002.4,N
1694399075.1,286047002.5,N
1694399095.8,286047000.1,N
1694399115.7,286047002.3,N
1694399135.5,286047002.1,N
1694399155.3,286047001.6,N
1694399175.2,286047001.3,N
1694399195.0,286047003.8,N
1694399195.9,286047003.8,N
1694399215.8,286047004.3,N
1694399235.6,286047004.0,N
1694399255.4,286047004.3,N
1694399275.3,286047001.8,N
1694399295.1,286047004.2,N
1694399315.9,286047001.3,N
1694399335.7,286047001.7,N
1694399355.5,286047003.5,N
1694399375.4,286047003.7,N
1694399395.2,286047003.7,N
1694399415.1,286047003.5,N
1694399416.0,286047003.5,N
1694399435.8,286047003.5,N
1694399455.6,286047003.2,N
1694399475.5,286047003.6,Y
1694399495.3,286047002.2,P
1694399515.2,286047002.1,P
1694399535.9,286047001.8,P
1694399555.7,286047002.5,Y
1694399575.6,286046998.3,P
1694399595.4,286047001.1,N
1694399615.2,286046999.0,N
1694399635.1,286046996.9,N
1694399636.0,286046996.9,N
1694399655.8,286046999.1,N
1694399675.7,286046998.4,N
1694399695.5,286046999.1,N
1694399715.3,286046999.3,N
1694399735.2,286046999.6,N
1694399755.0,286046996.9,N
1694399755.9,286046996.9,N
1694399775.8,286046999.1,N
1694399795.6,286046999.5,N
1694399815.4,286046999.2,N
1694399835.3,286046998.7,N
1694399855.1,286046999.1,N
1694399875.8,286046998.8,N
1694399895.7,286046998.4,N
1694399915.5,286046998.4,N
1694399935.4,286046998.4,N
1694399955.2,286046998.8,N
1694399975.0,286046999.0,N
1694399975.9,286046999.0,N
1694399995.8,286046999.0,N
1694400015.6,286046999.5,N
1694400035.4,286046998.5,N
1694400055.3,286046998.2,N
1694400075.1,286046998.6,N
1694400095.9,286046998.1,N
1694400115.7,286046998.2,N
1694400135.5,286046998.8,N
1694400155.4,286046998.3,N
1694400175.2,286046999.2,N
1694400195.0,286046996.6,Y
1694400195.9,286046996.6,P
1694400215.8,286046999.2,N
1694400235.6,286046996.6,P
1694400255.5,286046999.2,N
1694400275.3,286046997.1,N
1694400295.1,286046997.1,N
1694400315.9,286046998.0,N
1694400335.7,286046993.8,Y
1694400355.6,286046994.9,P
1694400375.4,286046995.2,P
1694400395.2,286046993.8,P
1694400415.1,286046994.2,Y
1694400416.0,286046994.2,P
1694400435.8,286046998.4,N
1694400455.7,286046997.0,N
1694400475.5,286046999.0,N
1694400495.3,286046999.5,N
1694400515.2,286046999.5,N
1694400535.0,286046999.5,N
1694400535.9,286046999.5,N
1694400555.8,286046998.7,N
1694400575.6,286047000.8,N
1694400595.4,286046998.1,N
1694400615.3,286046999.3,N
1694400635.1,286046998.8,N
1694400655.8,286046998.3,N
1694400675.7,286047001.2,N
1694400695.5,286046999.1,N
1694400715.4,286046996.5,N
1694400735.2,286046997.1,N
1694400755.1,286046997.7,N
1694400756.0,286046997.7,N
1694400775.8,286046997.4,N
1694400795.6,286046997.3,N
1694400815.5,286046997.3,N
1694400835.3,286046995.6,N
1694400855.1,286046995.6,N
1694400875.9,286046995.2,N
1694400895.7,286046995.7,N
1694400915.6,286046995.5,N
1694400935.4,286046996.1,N
1694400955.2,286046993.3,Y
1694400975.1,286046997.8,P
1694400976.0,286046997.8,P
1694400995.8,286046997.4,P
1694401015.7,286046996.8,Y
1694401035.5,286047000.7,P
1694401055.3,286047001.0,N
1694401075.2,286047001.2,N
1694401095.0,286046998.6,N
1694401095.9,286046998.6,N
1694401115.8,286046996.5,N
1694401135.6,286047000.8,N
1694401155.4,286046998.6,N
1694401175.3,286047000.7,N
1694401195.1,286046998.7,N
